Погода в Ванкувере

США     45°38′25″N   122°40′11″W
темп.,
°C
ветер,
м/с
пор.,
м/с
влажн.,
%
обл.,
%
осадки,
мм/ч
давл.,
гПа
погр.,
м
16 октября, сб
сб1623:00+9св009299 0.0 102110
02:00+9юв119678 0.0 102115
05:00+8ююв119773 0.0 101911
08:00+8ююв019899 0.0 101911
11:00+14ююв1374100 0.0 1017440
14:00+17ю2356100 0.0 1015776
17:00+17юв1162100 0.0 101233
20:00+11св0079100 0.0 101110
17 октября, вс
вс1723:00+10св0087100 0.0 101010
02:00+9юз0091100 0.0 100910
05:00+9юв1194100 0.0 100813
08:00+9ююв1193100 0.0 100711
11:00+14ююв1270100 0.0 1006434
14:00+15юв1266100 0.0 1005536
17:00+14ссз2371100 0.1 1004339
20:00+9сз51090100 0.9 1007511
18 октября, пн
пн1823:00+8сз4989100 1.4 1009473
02:00+8зсз2787100 0.1 1011373
05:00+7з23917 0.1 101381
08:00+5з119122 0.0 101632
11:00+12юз12637 0.0 1017900
14:00+15ююз124225 0.0 10171809
17:00+13ююв125199 0.0 1016107
20:00+8с0165100 0.0 101711
19 октября, вт
вт1923:00+6с1175100 0.0 101710
02:00+4ссз11849 0.0 101510
05:00+3ссв118999 0.0 101511
08:00+4с1187100 0.0 101310
11:00+10ю0157100 0.0 1012277
14:00+15ю0145100 0.0 1010449
17:00+13ссз2258100 0.0 100738
20:00+10сз1163100 0.0 100613
20 октября, ср
ср2023:00+9вюв0067100 0.0 100710
02:00+9св1169100 0.0 100815
05:00+8всв2394100 2.4 101087
08:00+8юв1596100 2.7 1011221
11:00+10ююв2795100 4.0 1014426
14:00+12ююв3886100 0.8 1015685
17:00+11юв1595100 1.3 1016343
20:00+11в1194100 0.1 101722